owner,sensor,date,latitude,longitude,relative_humidity,qcFlag 
COMPS,ioos:station:USF.COMPS:C12:1,2013-12-03T16:14:50Z,27.4980,-83.7220,79.0,1111122 
COMPS,ioos:station:USF.COMPS:C12:1,2013-12-03T16:29:50Z,27.4980,-83.7220,79.0,1111122 
COMPS,ioos:station:USF.COMPS:C12:1,2013-12-03T16:44:50Z,27.4980,-83.7220,79.0,1111122 
COMPS,ioos:station:USF.COMPS:C12:1,2013-12-03T16:59:50Z,27.4980,-83.7220,79.0,1111122 
COMPS,ioos:station:USF.COMPS:C12:1,2013-12-03T17:14:50Z,27.4980,-83.7220,80.0,1111122 
COMPS,ioos:station:USF.COMPS:C12:1,2013-12-03T17:29:50Z,27.4980,-83.7220,81.0,1111122 
COMPS,ioos:station:USF.COMPS:C12:1,2013-12-03T17:44:50Z,27.4980,-83.7220,81.0,1111122 
COMPS,ioos:station:USF.COMPS:C12:1,2013-12-03T17:59:50Z,27.4980,-83.7220,81.0,1111122 
COMPS,ioos:station:USF.COMPS:C12:1,2013-12-03T18:14:50Z,27.4980,-83.7220,82.0,1111122 
COMPS,ioos:station:USF.COMPS:C12:1,2013-12-03T18:29:50Z,27.4980,-83.7220,82.0,1111122 
COMPS,ioos:station:USF.COMPS:C12:1,2013-12-03T18:44:50Z,27.4980,-83.7220,82.0,1111122 
COMPS,ioos:station:USF.COMPS:C12:1,2013-12-03T18:59:50Z,27.4980,-83.7220,81.0,1111122 
COMPS,ioos:station:USF.COMPS:C12:1,2013-12-03T19:14:50Z,27.4980,-83.7220,80.0,1111122 
COMPS,ioos:station:USF.COMPS:C12:1,2013-12-03T19:29:50Z,27.4980,-83.7220,78.0,1111122 
COMPS,ioos:station:USF.COMPS:C12:1,2013-12-03T19:44:50Z,27.4980,-83.7220,79.0,1111122 
COMPS,ioos:station:USF.COMPS:C12:1,2013-12-03T19:59:50Z,27.4980,-83.7220,75.0,1111122 
COMPS,ioos:station:USF.COMPS:C12:1,2013-12-03T20:14:50Z,27.4980,-83.7220,71.0,1111122 
COMPS,ioos:station:USF.COMPS:C12:1,2013-12-03T20:29:50Z,27.4980,-83.7220,76.0,1111122 
COMPS,ioos:station:USF.COMPS:C12:1,2013-12-03T20:44:50Z,27.4980,-83.7220,77.0,1111122 
COMPS,ioos:station:USF.COMPS:C12:1,2013-12-03T20:59:50Z,27.4980,-83.7220,80.0,1111122 
COMPS,ioos:station:USF.COMPS:C12:1,2013-12-03T21:14:50Z,27.4980,-83.7220,80.0,1111122 
COMPS,ioos:station:USF.COMPS:C12:1,2013-12-03T21:29:50Z,27.4980,-83.7220,80.0,1111122 
COMPS,ioos:station:USF.COMPS:C12:1,2013-12-03T21:44:50Z,27.4980,-83.7220,80.0,1111122 
COMPS,ioos:station:USF.COMPS:C12:1,2013-12-03T21:59:50Z,27.4980,-83.7220,77.0,1111122 
COMPS,ioos:station:USF.COMPS:C12:1,2013-12-03T22:14:50Z,27.4980,-83.7220,77.0,1111122 
COMPS,ioos:station:USF.COMPS:C12:1,2013-12-03T22:29:50Z,27.4980,-83.7220,79.0,1111122 
COMPS,ioos:station:USF.COMPS:C12:1,2013-12-03T22:44:50Z,27.4980,-83.7220,80.0,1111122 
COMPS,ioos:station:USF.COMPS:C12:1,2013-12-03T22:59:50Z,27.4980,-83.7220,82.0,1111122 
COMPS,ioos:station:USF.COMPS:C12:1,2013-12-03T23:14:50Z,27.4980,-83.7220,84.0,1111122 
COMPS,ioos:station:USF.COMPS:C12:1,2013-12-03T23:29:50Z,27.4980,-83.7220,84.0,1111122 
COMPS,ioos:station:USF.COMPS:C12:1,2013-12-03T23:44:50Z,27.4980,-83.7220,84.0,1111122 
COMPS,ioos:station:USF.COMPS:C12:1,2013-12-03T23:59:50Z,27.4980,-83.7220,84.0,1111122 
COMPS,ioos:station:USF.COMPS:C12:1,2013-12-04T00:14:50Z,27.4980,-83.7220,84.0,1111122 
COMPS,ioos:station:USF.COMPS:C12:1,2013-12-04T00:29:50Z,27.4980,-83.7220,82.0,1111122 
COMPS,ioos:station:USF.COMPS:C12:1,2013-12-04T00:44:50Z,27.4980,-83.7220,83.0,1111122 
COMPS,ioos:station:USF.COMPS:C12:1,2013-12-04T00:59:50Z,27.4980,-83.7220,84.0,1111122 
COMPS,ioos:station:USF.COMPS:C12:1,2013-12-04T01:14:50Z,27.4980,-83.7220,85.0,1111122 
COMPS,ioos:station:USF.COMPS:C12:1,2013-12-04T01:29:50Z,27.4980,-83.7220,85.0,1111122 
COMPS,ioos:station:USF.COMPS:C12:1,2013-12-04T01:44:50Z,27.4980,-83.7220,85.0,1111122 
COMPS,ioos:station:USF.COMPS:C12:1,2013-12-04T01:59:50Z,27.4980,-83.7220,84.0,1111122 
COMPS,ioos:station:USF.COMPS:C12:1,2013-12-04T02:14:50Z,27.4980,-83.7220,84.0,1111122 
COMPS,ioos:station:USF.COMPS:C12:1,2013-12-04T02:29:50Z,27.4980,-83.7220,84.0,1111122 
COMPS,ioos:station:USF.COMPS:C12:1,2013-12-04T02:44:50Z,27.4980,-83.7220,82.0,1111122 
COMPS,ioos:station:USF.COMPS:C12:1,2013-12-04T02:59:50Z,27.4980,-83.7220,81.0,1111122 
COMPS,ioos:station:USF.COMPS:C12:1,2013-12-04T03:14:50Z,27.4980,-83.7220,75.0,1111122 
COMPS,ioos:station:USF.COMPS:C12:1,2013-12-04T03:29:50Z,27.4980,-83.7220,74.0,1111122 
COMPS,ioos:station:USF.COMPS:C12:1,2013-12-04T03:44:50Z,27.4980,-83.7220,74.0,1111122 
COMPS,ioos:station:USF.COMPS:C12:1,2013-12-04T03:59:50Z,27.4980,-83.7220,74.0,1111122 
COMPS,ioos:station:USF.COMPS:C12:1,2013-12-04T04:14:50Z,27.4980,-83.7220,75.0,1111122 
COMPS,ioos:station:USF.COMPS:C12:1,2013-12-04T04:29:50Z,27.4980,-83.7220,75.0,1111122 
COMPS,ioos:station:USF.COMPS:C12:1,2013-12-04T04:44:50Z,27.4980,-83.7220,75.0,1111122 
COMPS,ioos:station:USF.COMPS:C12:1,2013-12-04T04:59:50Z,27.4980,-83.7220,77.0,1111122 
COMPS,ioos:station:USF.COMPS:C12:1,2013-12-04T05:14:50Z,27.4980,-83.7220,79.0,1111122 
COMPS,ioos:station:USF.COMPS:C12:1,2013-12-04T05:29:50Z,27.4980,-83.7220,77.0,1111122 
COMPS,ioos:station:USF.COMPS:C12:1,2013-12-04T05:44:50Z,27.4980,-83.7220,75.0,1111122 
COMPS,ioos:station:USF.COMPS:C12:1,2013-12-04T05:59:50Z,27.4980,-83.7220,74.0,1111122 
COMPS,ioos:station:USF.COMPS:C12:1,2013-12-04T06:14:50Z,27.4980,-83.7220,76.0,1111122 
COMPS,ioos:station:USF.COMPS:C12:1,2013-12-04T06:29:50Z,27.4980,-83.7220,76.0,1111122 
COMPS,ioos:station:USF.COMPS:C12:1,2013-12-04T06:44:50Z,27.4980,-83.7220,77.0,1111122 
COMPS,ioos:station:USF.COMPS:C12:1,2013-12-04T06:59:50Z,27.4980,-83.7220,78.0,1111122 
COMPS,ioos:station:USF.COMPS:C12:1,2013-12-04T07:14:50Z,27.4980,-83.7220,80.0,1111122 
COMPS,ioos:station:USF.COMPS:C12:1,2013-12-04T07:29:50Z,27.4980,-83.7220,82.0,1111122 
COMPS,ioos:station:USF.COMPS:C12:1,2013-12-04T07:44:50Z,27.4980,-83.7220,82.0,1111122 
COMPS,ioos:station:USF.COMPS:C12:1,2013-12-04T07:59:50Z,27.4980,-83.7220,82.0,1111122 
COMPS,ioos:station:USF.COMPS:C12:1,2013-12-04T08:14:50Z,27.4980,-83.7220,82.0,1111122 
COMPS,ioos:station:USF.COMPS:C12:1,2013-12-04T08:29:50Z,27.4980,-83.7220,81.0,1111122 
COMPS,ioos:station:USF.COMPS:C12:1,2013-12-04T08:44:50Z,27.4980,-83.7220,81.0,1111122 
COMPS,ioos:station:USF.COMPS:C12:1,2013-12-04T08:59:50Z,27.4980,-83.7220,82.0,1111122 
COMPS,ioos:station:USF.COMPS:C12:1,2013-12-04T09:14:50Z,27.4980,-83.7220,81.0,1111122 
COMPS,ioos:station:USF.COMPS:C12:1,2013-12-04T09:29:50Z,27.4980,-83.7220,81.0,1111122 
COMPS,ioos:station:USF.COMPS:C12:1,2013-12-04T09:44:50Z,27.4980,-83.7220,81.0,1111122 
COMPS,ioos:station:USF.COMPS:C12:1,2013-12-04T09:59:50Z,27.4980,-83.7220,82.0,1111122 
COMPS,ioos:station:USF.COMPS:C12:1,2013-12-04T10:14:50Z,27.4980,-83.7220,81.0,1111122 
COMPS,ioos:station:USF.COMPS:C12:1,2013-12-04T10:29:50Z,27.4980,-83.7220,84.0,1111122 
COMPS,ioos:station:USF.COMPS:C12:1,2013-12-04T10:44:50Z,27.4980,-83.7220,85.0,1111122 
COMPS,ioos:station:USF.COMPS:C12:1,2013-12-04T10:59:50Z,27.4980,-83.7220,86.0,1111122 
COMPS,ioos:station:USF.COMPS:C12:1,2013-12-04T11:14:50Z,27.4980,-83.7220,85.0,1111122 
COMPS,ioos:station:USF.COMPS:C12:1,2013-12-04T11:29:50Z,27.4980,-83.7220,85.0,1111122 
COMPS,ioos:station:USF.COMPS:C12:1,2013-12-04T11:44:50Z,27.4980,-83.7220,83.0,1111122 
COMPS,ioos:station:USF.COMPS:C12:1,2013-12-04T11:59:50Z,27.4980,-83.7220,82.0,1111122 
COMPS,ioos:station:USF.COMPS:C12:1,2013-12-04T12:14:50Z,27.4980,-83.7220,82.0,1111122 
COMPS,ioos:station:USF.COMPS:C12:1,2013-12-04T12:29:50Z,27.4980,-83.7220,82.0,1111122 
COMPS,ioos:station:USF.COMPS:C12:1,2013-12-04T12:44:50Z,27.4980,-83.7220,82.0,1111122 
COMPS,ioos:station:USF.COMPS:C12:1,2013-12-04T12:59:50Z,27.4980,-83.7220,81.0,1111122 
COMPS,ioos:station:USF.COMPS:C12:1,2013-12-04T13:14:50Z,27.4980,-83.7220,81.0,1111122 
COMPS,ioos:station:USF.COMPS:C12:1,2013-12-04T13:29:50Z,27.4980,-83.7220,83.0,1111122 
COMPS,ioos:station:USF.COMPS:C12:1,2013-12-04T13:44:50Z,27.4980,-83.7220,85.0,1111122 
COMPS,ioos:station:USF.COMPS:C12:1,2013-12-04T13:59:50Z,27.4980,-83.7220,85.0,1111122 
COMPS,ioos:station:USF.COMPS:C12:1,2013-12-04T14:14:50Z,27.4980,-83.7220,86.0,1111122 
COMPS,ioos:station:USF.COMPS:C12:1,2013-12-04T14:29:50Z,27.4980,-83.7220,87.0,1111122 
COMPS,ioos:station:USF.COMPS:C12:1,2013-12-04T14:44:50Z,27.4980,-83.7220,87.0,1111122 
COMPS,ioos:station:USF.COMPS:C12:1,2013-12-04T14:59:50Z,27.4980,-83.7220,86.0,1111122 
COMPS,ioos:station:USF.COMPS:C12:1,2013-12-04T15:14:50Z,27.4980,-83.7220,86.0,1111122 
COMPS,ioos:station:USF.COMPS:C12:1,2013-12-04T15:29:50Z,27.4980,-83.7220,85.0,1111122 
COMPS,ioos:station:USF.COMPS:C12:1,2013-12-04T15:44:50Z,27.4980,-83.7220,85.0,1111122 
COMPS,ioos:station:USF.COMPS:C12:1,2013-12-04T15:59:50Z,27.4980,-83.7220,85.0,1111122 
COMPS,ioos:station:USF.COMPS:C12:1,2013-12-04T16:14:50Z,27.4980,-83.7220,86.0,1111122 
COMPS,ioos:station:USF.COMPS:C12:1,2013-12-04T16:29:50Z,27.4980,-83.7220,86.0,1111122 
COMPS,ioos:station:USF.COMPS:C12:1,2013-12-04T16:44:50Z,27.4980,-83.7220,86.0,1111122 
COMPS,ioos:station:USF.COMPS:C12:1,2013-12-04T16:59:50Z,27.4980,-83.7220,85.0,1111122 
COMPS,ioos:station:USF.COMPS:C12:1,2013-12-04T17:14:50Z,27.4980,-83.7220,85.0,1111122 
COMPS,ioos:station:USF.COMPS:C12:1,2013-12-04T17:29:50Z,27.4980,-83.7220,85.0,1111122 
COMPS,ioos:station:USF.COMPS:C12:1,2013-12-04T17:44:50Z,27.4980,-83.7220,86.0,1111122 
COMPS,ioos:station:USF.COMPS:C12:1,2013-12-04T17:59:50Z,27.4980,-83.7220,86.0,1111122 
COMPS,ioos:station:USF.COMPS:C12:1,2013-12-04T18:14:50Z,27.4980,-83.7220,86.0,1111122 
COMPS,ioos:station:USF.COMPS:C12:1,2013-12-04T18:29:50Z,27.4980,-83.7220,86.0,1111122 
COMPS,ioos:station:USF.COMPS:C12:1,2013-12-04T18:44:50Z,27.4980,-83.7220,86.0,1111122 
COMPS,ioos:station:USF.COMPS:C12:1,2013-12-04T18:59:50Z,27.4980,-83.7220,85.0,1111122 
COMPS,ioos:station:USF.COMPS:C12:1,2013-12-04T19:14:50Z,27.4980,-83.7220,84.0,1111122 
COMPS,ioos:station:USF.COMPS:C12:1,2013-12-04T19:29:50Z,27.4980,-83.7220,84.0,1111122 
COMPS,ioos:station:USF.COMPS:C12:1,2013-12-04T19:44:50Z,27.4980,-83.7220,85.0,1111122 
COMPS,ioos:station:USF.COMPS:C12:1,2013-12-04T19:59:50Z,27.4980,-83.7220,85.0,1111122 
COMPS,ioos:station:USF.COMPS:C12:1,2013-12-04T20:14:50Z,27.4980,-83.7220,85.0,1111122 
COMPS,ioos:station:USF.COMPS:C12:1,2013-12-04T20:29:50Z,27.4980,-83.7220,85.0,1111122 
COMPS,ioos:station:USF.COMPS:C12:1,2013-12-04T20:44:50Z,27.4980,-83.7220,86.0,1111122 
COMPS,ioos:station:USF.COMPS:C12:1,2013-12-04T20:59:50Z,27.4980,-83.7220,86.0,1111122 
COMPS,ioos:station:USF.COMPS:C12:1,2013-12-04T21:14:50Z,27.4980,-83.7220,87.0,1111122 
COMPS,ioos:station:USF.COMPS:C12:1,2013-12-04T21:29:50Z,27.4980,-83.7220,87.0,1111122 
COMPS,ioos:station:USF.COMPS:C12:1,2013-12-04T21:44:50Z,27.4980,-83.7220,88.0,1111122 
COMPS,ioos:station:USF.COMPS:C12:1,2013-12-04T21:59:50Z,27.4980,-83.7220,88.0,1111122 
COMPS,ioos:station:USF.COMPS:C12:1,2013-12-04T22:14:50Z,27.4980,-83.7220,88.0,1111122 
COMPS,ioos:station:USF.COMPS:C12:1,2013-12-04T22:29:50Z,27.4980,-83.7220,89.0,1111122 
COMPS,ioos:station:USF.COMPS:C12:1,2013-12-04T22:44:50Z,27.4980,-83.7220,89.0,1111122 
COMPS,ioos:station:USF.COMPS:C12:1,2013-12-04T22:59:50Z,27.4980,-83.7220,89.0,1111122 
COMPS,ioos:station:USF.COMPS:C12:1,2013-12-04T23:14:50Z,27.4980,-83.7220,89.0,1111122 
COMPS,ioos:station:USF.COMPS:C12:1,2013-12-04T23:29:50Z,27.4980,-83.7220,89.0,1111122 
COMPS,ioos:station:USF.COMPS:C12:1,2013-12-04T23:44:50Z,27.4980,-83.7220,89.0,1111122 
COMPS,ioos:station:USF.COMPS:C12:1,2013-12-04T23:59:50Z,27.4980,-83.7220,89.0,1111122 
COMPS,ioos:station:USF.COMPS:C12:1,2013-12-05T00:14:50Z,27.4980,-83.7220,89.0,1111122 
COMPS,ioos:station:USF.COMPS:C12:1,2013-12-05T00:29:50Z,27.4980,-83.7220,89.0,1111122 
COMPS,ioos:station:USF.COMPS:C12:1,2013-12-05T00:44:50Z,27.4980,-83.7220,89.0,1111122 
COMPS,ioos:station:USF.COMPS:C12:1,2013-12-05T00:59:50Z,27.4980,-83.7220,89.0,1111122 
COMPS,ioos:station:USF.COMPS:C12:1,2013-12-05T01:14:50Z,27.4980,-83.7220,89.0,1111122 
COMPS,ioos:station:USF.COMPS:C12:1,2013-12-05T01:29:50Z,27.4980,-83.7220,89.0,1111122 
COMPS,ioos:station:USF.COMPS:C12:1,2013-12-05T01:44:50Z,27.4980,-83.7220,88.0,1111122 
COMPS,ioos:station:USF.COMPS:C12:1,2013-12-05T01:59:50Z,27.4980,-83.7220,88.0,1111122 
COMPS,ioos:station:USF.COMPS:C12:1,2013-12-05T02:14:50Z,27.4980,-83.7220,87.0,1111122 
COMPS,ioos:station:USF.COMPS:C12:1,2013-12-05T02:29:50Z,27.4980,-83.7220,87.0,1111122 
COMPS,ioos:station:USF.COMPS:C12:1,2013-12-05T02:44:50Z,27.4980,-83.7220,85.0,1111122 
COMPS,ioos:station:USF.COMPS:C12:1,2013-12-05T02:59:50Z,27.4980,-83.7220,84.0,1111122 
COMPS,ioos:station:USF.COMPS:C12:1,2013-12-05T03:14:50Z,27.4980,-83.7220,82.0,1111122 
COMPS,ioos:station:USF.COMPS:C12:1,2013-12-05T03:29:50Z,27.4980,-83.7220,81.0,1111122 
COMPS,ioos:station:USF.COMPS:C12:1,2013-12-05T03:44:50Z,27.4980,-83.7220,82.0,1111122 
COMPS,ioos:station:USF.COMPS:C12:1,2013-12-05T03:59:50Z,27.4980,-83.7220,83.0,1111122 
COMPS,ioos:station:USF.COMPS:C12:1,2013-12-05T04:14:50Z,27.4980,-83.7220,85.0,1111122 
COMPS,ioos:station:USF.COMPS:C12:1,2013-12-05T04:29:50Z,27.4980,-83.7220,86.0,1111122 
COMPS,ioos:station:USF.COMPS:C12:1,2013-12-05T04:44:50Z,27.4980,-83.7220,86.0,1111122 
COMPS,ioos:station:USF.COMPS:C12:1,2013-12-05T04:59:50Z,27.4980,-83.7220,87.0,1111122 
COMPS,ioos:station:USF.COMPS:C12:1,2013-12-05T05:14:50Z,27.4980,-83.7220,87.0,1111122 
COMPS,ioos:station:USF.COMPS:C12:1,2013-12-05T05:29:50Z,27.4980,-83.7220,88.0,1111122 
COMPS,ioos:station:USF.COMPS:C12:1,2013-12-05T05:44:50Z,27.4980,-83.7220,88.0,1111122 
COMPS,ioos:station:USF.COMPS:C12:1,2013-12-05T05:59:50Z,27.4980,-83.7220,89.0,1111122 
COMPS,ioos:station:USF.COMPS:C12:1,2013-12-05T06:14:50Z,27.4980,-83.7220,88.0,1111122 
COMPS,ioos:station:USF.COMPS:C12:1,2013-12-05T06:29:50Z,27.4980,-83.7220,88.0,1111122 
COMPS,ioos:station:USF.COMPS:C12:1,2013-12-05T06:44:50Z,27.4980,-83.7220,87.0,1111122 
COMPS,ioos:station:USF.COMPS:C12:1,2013-12-05T06:59:50Z,27.4980,-83.7220,87.0,1111122 
COMPS,ioos:station:USF.COMPS:C12:1,2013-12-05T07:14:50Z,27.4980,-83.7220,87.0,1111122 
COMPS,ioos:station:USF.COMPS:C12:1,2013-12-05T07:29:50Z,27.4980,-83.7220,87.0,1111122 
COMPS,ioos:station:USF.COMPS:C12:1,2013-12-05T07:44:50Z,27.4980,-83.7220,87.0,1111122 
COMPS,ioos:station:USF.COMPS:C12:1,2013-12-05T07:59:50Z,27.4980,-83.7220,87.0,1111122 
COMPS,ioos:station:USF.COMPS:C12:1,2013-12-05T08:14:50Z,27.4980,-83.7220,87.0,1111122 
COMPS,ioos:station:USF.COMPS:C12:1,2013-12-05T08:29:50Z,27.4980,-83.7220,86.0,1111122 
COMPS,ioos:station:USF.COMPS:C12:1,2013-12-05T08:44:50Z,27.4980,-83.7220,86.0,1111122 
COMPS,ioos:station:USF.COMPS:C12:1,2013-12-05T08:59:50Z,27.4980,-83.7220,86.0,1111122 
COMPS,ioos:station:USF.COMPS:C12:1,2013-12-05T09:14:50Z,27.4980,-83.7220,86.0,1111122 
COMPS,ioos:station:USF.COMPS:C12:1,2013-12-05T09:29:50Z,27.4980,-83.7220,86.0,1111122 
COMPS,ioos:station:USF.COMPS:C12:1,2013-12-05T09:44:50Z,27.4980,-83.7220,86.0,1111122 
COMPS,ioos:station:USF.COMPS:C12:1,2013-12-05T09:59:50Z,27.4980,-83.7220,86.0,1111122 
COMPS,ioos:station:USF.COMPS:C12:1,2013-12-05T10:14:50Z,27.4980,-83.7220,87.0,1111122 
COMPS,ioos:station:USF.COMPS:C12:1,2013-12-05T10:29:50Z,27.4980,-83.7220,87.0,1111122 
COMPS,ioos:station:USF.COMPS:C12:1,2013-12-05T10:44:50Z,27.4980,-83.7220,87.0,1111122 
COMPS,ioos:station:USF.COMPS:C12:1,2013-12-05T10:59:50Z,27.4980,-83.7220,87.0,1111122 
COMPS,ioos:station:USF.COMPS:C12:1,2013-12-05T11:14:50Z,27.4980,-83.7220,87.0,1111122 
COMPS,ioos:station:USF.COMPS:C12:1,2013-12-05T11:29:50Z,27.4980,-83.7220,87.0,1111122 
COMPS,ioos:station:USF.COMPS:C12:1,2013-12-05T11:44:50Z,27.4980,-83.7220,87.0,1111122 
COMPS,ioos:station:USF.COMPS:C12:1,2013-12-05T11:59:50Z,27.4980,-83.7220,87.0,1111122 
COMPS,ioos:station:USF.COMPS:C12:1,2013-12-05T12:14:50Z,27.4980,-83.7220,87.0,1111122 
COMPS,ioos:station:USF.COMPS:C12:1,2013-12-05T12:29:50Z,27.4980,-83.7220,86.0,1111122 
COMPS,ioos:station:USF.COMPS:C12:1,2013-12-05T12:44:50Z,27.4980,-83.7220,85.0,1111122 
COMPS,ioos:station:USF.COMPS:C12:1,2013-12-05T12:59:50Z,27.4980,-83.7220,85.0,1111122 
COMPS,ioos:station:USF.COMPS:C12:1,2013-12-05T13:14:50Z,27.4980,-83.7220,84.0,1111122 
COMPS,ioos:station:USF.COMPS:C12:1,2013-12-05T13:29:50Z,27.4980,-83.7220,82.0,1111122 
COMPS,ioos:station:USF.COMPS:C12:1,2013-12-05T13:44:50Z,27.4980,-83.7220,82.0,1111122 
COMPS,ioos:station:USF.COMPS:C12:1,2013-12-05T13:59:50Z,27.4980,-83.7220,81.0,1111122 
COMPS,ioos:station:USF.COMPS:C12:1,2013-12-05T14:14:50Z,27.4980,-83.7220,80.0,1111122 
COMPS,ioos:station:USF.COMPS:C12:1,2013-12-05T14:29:50Z,27.4980,-83.7220,80.0,1111122 
COMPS,ioos:station:USF.COMPS:C12:1,2013-12-05T14:44:50Z,27.4980,-83.7220,80.0,1111122 
COMPS,ioos:station:USF.COMPS:C12:1,2013-12-05T14:59:50Z,27.4980,-83.7220,80.0,1111122 
COMPS,ioos:station:USF.COMPS:C12:1,2013-12-05T15:14:50Z,27.4980,-83.7220,80.0,1111122 
COMPS,ioos:station:USF.COMPS:C12:1,2013-12-05T15:29:50Z,27.4980,-83.7220,80.0,1111122 
COMPS,ioos:station:USF.COMPS:C12:1,2013-12-05T15:44:50Z,27.4980,-83.7220,80.0,1111122 
COMPS,ioos:station:USF.COMPS:C12:1,2013-12-05T15:59:50Z,27.4980,-83.7220,80.0,1111122 
COMPS,ioos:station:USF.COMPS:C12:1,2013-12-05T16:14:50Z,27.4980,-83.7220,80.0,1111122 
COMPS,ioos:station:USF.COMPS:C12:1,2013-12-05T16:29:50Z,27.4980,-83.7220,80.0,1111122 
COMPS,ioos:station:USF.COMPS:C12:1,2013-12-05T16:44:50Z,27.4980,-83.7220,80.0,1111122 
COMPS,ioos:station:USF.COMPS:C12:1,2013-12-05T16:59:50Z,27.4980,-83.7220,80.0,1111122 
COMPS,ioos:station:USF.COMPS:C12:1,2013-12-05T17:14:50Z,27.4980,-83.7220,80.0,1111122 
COMPS,ioos:station:USF.COMPS:C12:1,2013-12-05T17:29:50Z,27.4980,-83.7220,80.0,1111122 
COMPS,ioos:station:USF.COMPS:C12:1,2013-12-05T17:44:50Z,27.4980,-83.7220,80.0,1111122 
COMPS,ioos:station:USF.COMPS:C12:1,2013-12-05T17:59:50Z,27.4980,-83.7220,80.0,1111122 
COMPS,ioos:station:USF.COMPS:C12:1,2013-12-05T18:14:50Z,27.4980,-83.7220,79.0,1111122 
COMPS,ioos:station:USF.COMPS:C12:1,2013-12-05T18:29:50Z,27.4980,-83.7220,79.0,1111122 
COMPS,ioos:station:USF.COMPS:C12:1,2013-12-05T18:44:50Z,27.4980,-83.7220,79.0,1111122 
COMPS,ioos:station:USF.COMPS:C12:1,2013-12-05T18:59:50Z,27.4980,-83.7220,79.0,1111122 
COMPS,ioos:station:USF.COMPS:C12:1,2013-12-05T19:14:50Z,27.4980,-83.7220,79.0,1111122 
COMPS,ioos:station:USF.COMPS:C12:1,2013-12-05T19:29:50Z,27.4980,-83.7220,78.0,1111122 
COMPS,ioos:station:USF.COMPS:C12:1,2013-12-05T19:44:50Z,27.4980,-83.7220,77.0,1111122 
COMPS,ioos:station:USF.COMPS:C12:1,2013-12-05T19:59:50Z,27.4980,-83.7220,77.0,1111122 
COMPS,ioos:station:USF.COMPS:C12:1,2013-12-05T20:14:50Z,27.4980,-83.7220,77.0,1111122 
COMPS,ioos:station:USF.COMPS:C12:1,2013-12-05T20:29:50Z,27.4980,-83.7220,77.0,1111122 
COMPS,ioos:station:USF.COMPS:C12:1,2013-12-05T20:44:50Z,27.4980,-83.7220,77.0,1111122 
COMPS,ioos:station:USF.COMPS:C12:1,2013-12-05T20:59:50Z,27.4980,-83.7220,78.0,1111122 
COMPS,ioos:station:USF.COMPS:C12:1,2013-12-05T21:14:50Z,27.4980,-83.7220,77.0,1111122 
COMPS,ioos:station:USF.COMPS:C12:1,2013-12-05T21:29:50Z,27.4980,-83.7220,77.0,1111122 
COMPS,ioos:station:USF.COMPS:C12:1,2013-12-05T21:44:50Z,27.4980,-83.7220,78.0,1111122 
COMPS,ioos:station:USF.COMPS:C12:1,2013-12-05T21:59:50Z,27.4980,-83.7220,78.0,1111122 
COMPS,ioos:station:USF.COMPS:C12:1,2013-12-05T22:14:50Z,27.4980,-83.7220,78.0,1111122 
COMPS,ioos:station:USF.COMPS:C12:1,2013-12-05T22:29:50Z,27.4980,-83.7220,79.0,1111122 
COMPS,ioos:station:USF.COMPS:C12:1,2013-12-05T22:44:50Z,27.4980,-83.7220,80.0,1111122 
COMPS,ioos:station:USF.COMPS:C12:1,2013-12-05T22:59:50Z,27.4980,-83.7220,80.0,1111122 
COMPS,ioos:station:USF.COMPS:C12:1,2013-12-05T23:14:50Z,27.4980,-83.7220,81.0,1111122 
COMPS,ioos:station:USF.COMPS:C12:1,2013-12-05T23:29:50Z,27.4980,-83.7220,81.0,1111122 
COMPS,ioos:station:USF.COMPS:C12:1,2013-12-12T17:14:50Z,27.4980,-83.7220,73.0,1111122 
COMPS,ioos:station:USF.COMPS:C12:1,2013-12-12T17:29:50Z,27.4980,-83.7220,73.0,1111122 
COMPS,ioos:station:USF.COMPS:C12:1,2013-12-12T17:44:50Z,27.4980,-83.7220,72.0,1111122 
COMPS,ioos:station:USF.COMPS:C12:1,2013-12-12T17:59:50Z,27.4980,-83.7220,72.0,1111122 
COMPS,ioos:station:USF.COMPS:C12:1,2013-12-12T18:14:50Z,27.4980,-83.7220,71.0,1111122 
COMPS,ioos:station:USF.COMPS:C12:1,2013-12-12T18:29:50Z,27.4980,-83.7220,69.0,1111122 
COMPS,ioos:station:USF.COMPS:C12:1,2013-12-12T18:44:50Z,27.4980,-83.7220,68.0,1111122 
COMPS,ioos:station:USF.COMPS:C12:1,2013-12-12T18:59:50Z,27.4980,-83.7220,67.0,1111122 
COMPS,ioos:station:USF.COMPS:C12:1,2013-12-12T19:14:50Z,27.4980,-83.7220,66.0,1111122 
COMPS,ioos:station:USF.COMPS:C12:1,2013-12-12T19:29:50Z,27.4980,-83.7220,64.0,1111122 
COMPS,ioos:station:USF.COMPS:C12:1,2013-12-12T19:44:50Z,27.4980,-83.7220,63.0,1111122 
COMPS,ioos:station:USF.COMPS:C12:1,2013-12-12T19:59:50Z,27.4980,-83.7220,56.0,1111122 
COMPS,ioos:station:USF.COMPS:C12:1,2013-12-12T20:14:50Z,27.4980,-83.7220,51.0,1111122 
COMPS,ioos:station:USF.COMPS:C12:1,2013-12-12T20:29:50Z,27.4980,-83.7220,53.0,1111122 
COMPS,ioos:station:USF.COMPS:C12:1,2013-12-12T20:44:50Z,27.4980,-83.7220,52.0,1111122 
COMPS,ioos:station:USF.COMPS:C12:1,2013-12-12T20:59:50Z,27.4980,-83.7220,55.0,1111122 
COMPS,ioos:station:USF.COMPS:C12:1,2013-12-12T21:14:50Z,27.4980,-83.7220,53.0,1111122 
COMPS,ioos:station:USF.COMPS:C12:1,2013-12-12T21:29:50Z,27.4980,-83.7220,53.0,1111122 
COMPS,ioos:station:USF.COMPS:C12:1,2013-12-12T21:44:50Z,27.4980,-83.7220,52.0,1111122 
COMPS,ioos:station:USF.COMPS:C12:1,2013-12-12T21:59:50Z,27.4980,-83.7220,50.0,1111122 
COMPS,ioos:station:USF.COMPS:C12:1,2013-12-12T22:14:50Z,27.4980,-83.7220,49.0,1111122 
COMPS,ioos:station:USF.COMPS:C12:1,2013-12-12T22:29:50Z,27.4980,-83.7220,50.0,1111122 
COMPS,ioos:station:USF.COMPS:C12:1,2013-12-12T22:44:50Z,27.4980,-83.7220,50.0,1111122 
COMPS,ioos:station:USF.COMPS:C12:1,2013-12-12T22:59:50Z,27.4980,-83.7220,50.0,1111122 
COMPS,ioos:station:USF.COMPS:C12:1,2013-12-12T23:14:50Z,27.4980,-83.7220,51.0,1111122 
COMPS,ioos:station:USF.COMPS:C12:1,2013-12-12T23:29:50Z,27.4980,-83.7220,49.0,1111122 
COMPS,ioos:station:USF.COMPS:C12:1,2013-12-12T23:44:50Z,27.4980,-83.7220,49.0,1111122 
COMPS,ioos:station:USF.COMPS:C12:1,2013-12-12T23:59:50Z,27.4980,-83.7220,48.0,1111122 
COMPS,ioos:station:USF.COMPS:C12:1,2013-12-13T00:14:50Z,27.4980,-83.7220,50.0,1111122 
COMPS,ioos:station:USF.COMPS:C12:1,2013-12-13T00:29:50Z,27.4980,-83.7220,48.0,1111122 
COMPS,ioos:station:USF.COMPS:C12:1,2013-12-13T00:44:50Z,27.4980,-83.7220,48.0,1111122 
COMPS,ioos:station:USF.COMPS:C12:1,2013-12-13T00:59:50Z,27.4980,-83.7220,49.0,1111122 
COMPS,ioos:station:USF.COMPS:C12:1,2013-12-13T01:14:50Z,27.4980,-83.7220,48.0,1111122 
COMPS,ioos:station:USF.COMPS:C12:1,2013-12-13T01:29:50Z,27.4980,-83.7220,47.0,1111122 
COMPS,ioos:station:USF.COMPS:C12:1,2013-12-13T01:44:50Z,27.4980,-83.7220,44.0,1111122 
COMPS,ioos:station:USF.COMPS:C12:1,2013-12-13T01:59:50Z,27.4980,-83.7220,44.0,1111122 
COMPS,ioos:station:USF.COMPS:C12:1,2013-12-13T02:14:50Z,27.4980,-83.7220,44.0,1111122 
COMPS,ioos:station:USF.COMPS:C12:1,2013-12-13T02:29:50Z,27.4980,-83.7220,39.0,1111122 
COMPS,ioos:station:USF.COMPS:C12:1,2013-12-13T02:44:50Z,27.4980,-83.7220,41.0,1111122 
COMPS,ioos:station:USF.COMPS:C12:1,2013-12-13T02:59:50Z,27.4980,-83.7220,40.0,1111122 
COMPS,ioos:station:USF.COMPS:C12:1,2013-12-13T03:14:50Z,27.4980,-83.7220,41.0,1111122 
COMPS,ioos:station:USF.COMPS:C12:1,2013-12-13T03:29:50Z,27.4980,-83.7220,42.0,1111122 
COMPS,ioos:station:USF.COMPS:C12:1,2013-12-13T03:44:50Z,27.4980,-83.7220,41.0,1111122 
COMPS,ioos:station:USF.COMPS:C12:1,2013-12-13T03:59:50Z,27.4980,-83.7220,40.0,1111122 
COMPS,ioos:station:USF.COMPS:C12:1,2013-12-13T04:14:50Z,27.4980,-83.7220,40.0,1111122 
COMPS,ioos:station:USF.COMPS:C12:1,2013-12-13T04:29:50Z,27.4980,-83.7220,38.0,1111122 
COMPS,ioos:station:USF.COMPS:C12:1,2013-12-13T04:44:50Z,27.4980,-83.7220,38.0,1111122 
COMPS,ioos:station:USF.COMPS:C12:1,2013-12-13T04:59:50Z,27.4980,-83.7220,40.0,1111122 
COMPS,ioos:station:USF.COMPS:C12:1,2013-12-13T05:14:50Z,27.4980,-83.7220,42.0,1111122 
COMPS,ioos:station:USF.COMPS:C12:1,2013-12-13T05:29:50Z,27.4980,-83.7220,42.0,1111122 
COMPS,ioos:station:USF.COMPS:C12:1,2013-12-13T05:44:50Z,27.4980,-83.7220,40.0,1111122 
COMPS,ioos:station:USF.COMPS:C12:1,2013-12-13T05:59:50Z,27.4980,-83.7220,41.0,1111122 
COMPS,ioos:station:USF.COMPS:C12:1,2013-12-13T06:14:50Z,27.4980,-83.7220,41.0,1111122 